Time,TemperatureF,DewpointF,PressureIn,WindDirection,WindDirectionDegrees,WindSpeedMPH,WindSpeedGustMPH,Humidity,HourlyPrecipIn,Conditions,Clouds,dailyrainin,SolarRadiationWatts/m^2,SoftwareType,DateUTC
2013-09-07 00:02:00,46.1,46.1,30.14,North,0,0.0,8.0,100,0.00,,,0.00,0,Wunderground v.1.15,2013-09-07 07:02:00,
2013-09-07 00:12:00,45.7,45.7,30.14,North,0,0.0,8.0,100,0.00,,,0.00,0,Wunderground v.1.15,2013-09-07 07:12:00,
2013-09-07 00:22:00,45.4,45.4,30.14,North,0,0.0,8.0,100,0.00,,,0.00,0,Wunderground v.1.15,2013-09-07 07:22:00,
2013-09-07 00:32:00,45.1,45.1,30.13,North,0,0.0,8.0,100,0.00,,,0.00,0,Wunderground v.1.15,2013-09-07 07:32:00,
2013-09-07 00:42:00,44.8,44.8,30.13,North,0,0.0,8.0,100,0.00,,,0.00,0,Wunderground v.1.15,2013-09-07 07:42:00,
2013-09-07 00:52:00,44.6,44.6,30.14,North,0,0.0,8.0,100,0.00,,,0.00,0,Wunderground v.1.15,2013-09-07 07:52:00,
2013-09-07 01:02:00,44.1,44.1,30.14,North,0,0.0,8.0,100,0.00,,,0.00,0,Wunderground v.1.15,2013-09-07 08:02:00,
2013-09-07 01:12:00,44.0,44.0,30.13,North,0,0.0,8.0,100,0.00,,,0.00,0,Wunderground v.1.15,2013-09-07 08:12:00,
2013-09-07 01:22:00,43.6,43.6,30.13,North,0,0.0,8.0,100,0.00,,,0.00,0,Wunderground v.1.15,2013-09-07 08:22:00,
2013-09-07 01:32:00,43.1,43.1,30.13,North,0,0.0,8.0,100,0.00,,,0.00,0,Wunderground v.1.15,2013-09-07 08:32:00,
2013-09-07 01:42:00,42.8,42.8,30.13,North,0,0.0,8.0,100,0.00,,,0.00,0,Wunderground v.1.15,2013-09-07 08:42:00,
2013-09-07 01:52:00,42.6,42.6,30.13,North,0,0.0,8.0,100,0.00,,,0.00,0,Wunderground v.1.15,2013-09-07 08:52:00,
2013-09-07 02:02:00,42.3,42.3,30.12,North,0,0.0,8.0,100,0.00,,,0.00,0,Wunderground v.1.15,2013-09-07 09:02:00,
2013-09-07 02:12:00,42.4,42.4,30.12,North,0,0.0,8.0,100,0.00,,,0.00,0,Wunderground v.1.15,2013-09-07 09:12:00,
2013-09-07 02:22:00,42.1,42.1,30.12,North,0,0.0,8.0,100,0.00,,,0.00,0,Wunderground v.1.15,2013-09-07 09:22:00,
2013-09-07 02:32:00,41.7,41.7,30.12,North,0,0.0,8.0,100,0.00,,,0.00,0,Wunderground v.1.15,2013-09-07 09:32:00,
2013-09-07 02:42:00,41.4,41.4,30.12,North,0,0.0,8.0,100,0.00,,,0.00,0,Wunderground v.1.15,2013-09-07 09:42:00,
2013-09-07 02:52:00,41.4,41.4,30.12,North,0,0.0,8.0,100,0.00,,,0.00,0,Wunderground v.1.15,2013-09-07 09:52:00,
2013-09-07 03:02:00,40.8,40.8,30.12,North,0,0.0,8.0,100,0.00,,,0.00,0,Wunderground v.1.15,2013-09-07 10:02:00,
2013-09-07 03:12:00,40.5,40.5,30.12,North,0,0.0,8.0,100,0.00,,,0.00,0,Wunderground v.1.15,2013-09-07 10:12:00,
2013-09-07 03:22:00,40.1,40.1,30.12,North,0,0.0,8.0,100,0.00,,,0.00,0,Wunderground v.1.15,2013-09-07 10:22:00,
2013-09-07 03:32:00,39.9,39.9,30.11,North,0,0.0,8.0,100,0.00,,,0.00,0,Wunderground v.1.15,2013-09-07 10:32:00,
2013-09-07 03:42:00,39.7,39.7,30.11,North,0,0.0,8.0,100,0.00,,,0.00,0,Wunderground v.1.15,2013-09-07 10:42:00,
2013-09-07 03:52:00,39.5,39.5,30.11,North,0,0.0,8.0,100,0.00,,,0.00,0,Wunderground v.1.15,2013-09-07 10:52:00,
2013-09-07 04:02:00,39.4,39.4,30.11,North,0,0.0,8.0,100,0.00,,,0.00,0,Wunderground v.1.15,2013-09-07 11:02:00,
2013-09-07 04:12:00,39.2,39.2,30.11,North,0,0.0,8.0,100,0.00,,,0.00,0,Wunderground v.1.15,2013-09-07 11:12:00,
2013-09-07 04:22:00,39.2,39.2,30.11,North,0,0.0,8.0,100,0.00,,,0.00,0,Wunderground v.1.15,2013-09-07 11:22:00,
2013-09-07 04:32:00,39.2,39.2,30.11,North,0,0.0,8.0,100,0.00,,,0.00,0,Wunderground v.1.15,2013-09-07 11:32:00,
2013-09-07 04:42:00,38.9,38.9,30.11,North,0,0.0,8.0,100,0.00,,,0.00,0,Wunderground v.1.15,2013-09-07 11:42:00,
2013-09-07 04:52:00,38.5,38.5,30.11,North,0,0.0,8.0,100,0.00,,,0.00,0,Wunderground v.1.15,2013-09-07 11:52:00,
2013-09-07 05:02:00,38.4,38.4,30.11,North,0,1.0,8.0,100,0.00,,,0.00,0,Wunderground v.1.15,2013-09-07 12:02:00,
2013-09-07 05:12:00,38.7,38.7,30.11,North,0,0.0,8.0,100,0.00,,,0.00,0,Wunderground v.1.15,2013-09-07 12:12:00,
2013-09-07 05:22:00,38.8,38.8,30.11,North,0,2.0,8.0,100,0.00,,,0.00,0,Wunderground v.1.15,2013-09-07 12:22:00,
2013-09-07 05:32:00,38.5,38.5,30.11,North,0,0.0,8.0,100,0.00,,,0.00,0,Wunderground v.1.15,2013-09-07 12:32:00,
2013-09-07 05:42:00,38.6,38.6,30.11,North,0,0.0,8.0,100,0.00,,,0.00,0,Wunderground v.1.15,2013-09-07 12:42:00,
2013-09-07 05:52:00,38.2,38.2,30.11,North,0,1.0,8.0,100,0.00,,,0.00,0,Wunderground v.1.15,2013-09-07 12:52:00,
2013-09-07 06:02:00,37.8,37.8,30.11,North,0,0.0,8.0,100,0.00,,,0.00,0,Wunderground v.1.15,2013-09-07 13:02:00,
2013-09-07 06:12:00,38.0,38.0,30.11,North,0,0.0,8.0,100,0.00,,,0.00,0,Wunderground v.1.15,2013-09-07 13:12:00,
2013-09-07 06:22:00,37.9,37.9,30.11,North,0,0.0,8.0,100,0.00,,,0.00,0,Wunderground v.1.15,2013-09-07 13:22:00,
2013-09-07 06:32:00,37.8,37.8,30.11,North,0,0.0,8.0,100,0.00,,,0.00,0,Wunderground v.1.15,2013-09-07 13:32:00,
2013-09-07 06:42:00,37.4,37.4,30.11,North,0,0.0,8.0,100,0.00,,,0.00,0,Wunderground v.1.15,2013-09-07 13:42:00,
2013-09-07 06:52:00,37.5,37.5,30.11,North,0,0.0,8.0,100,0.00,,,0.00,0,Wunderground v.1.15,2013-09-07 13:52:00,
2013-09-07 07:02:00,38.0,38.0,30.11,North,0,0.0,8.0,100,0.00,,,0.00,0,Wunderground v.1.15,2013-09-07 14:02:00,
2013-09-07 07:12:00,38.5,38.5,30.11,North,0,0.0,8.0,100,0.00,,,0.00,0,Wunderground v.1.15,2013-09-07 14:12:00,
2013-09-07 07:22:00,39.2,39.2,30.11,North,0,0.0,8.0,100,0.00,,,0.00,0,Wunderground v.1.15,2013-09-07 14:22:00,
2013-09-07 07:32:00,40.3,40.3,30.11,North,0,0.0,8.0,100,0.00,,,0.00,0,Wunderground v.1.15,2013-09-07 14:32:00,
2013-09-07 07:42:00,41.8,41.8,30.11,North,0,0.0,8.0,100,0.00,,,0.00,0,Wunderground v.1.15,2013-09-07 14:42:00,
2013-09-07 07:52:00,44.0,44.0,30.11,North,0,0.0,8.0,100,0.00,,,0.00,0,Wunderground v.1.15,2013-09-07 14:52:00,
2013-09-07 08:02:00,45.7,45.4,30.10,North,0,0.0,8.0,99,0.00,,,0.00,0,Wunderground v.1.15,2013-09-07 15:02:00,
2013-09-07 08:12:00,47.3,45.7,30.10,North,0,0.0,8.0,94,0.00,,,0.00,0,Wunderground v.1.15,2013-09-07 15:12:00,
2013-09-07 08:22:00,48.9,47.0,30.10,North,0,0.0,8.0,93,0.00,,,0.00,0,Wunderground v.1.15,2013-09-07 15:22:00,
2013-09-07 08:32:00,49.8,47.9,30.10,North,0,0.0,8.0,93,0.00,,,0.00,0,Wunderground v.1.15,2013-09-07 15:32:00,
2013-09-07 08:42:00,51.1,48.9,30.10,North,0,0.0,8.0,92,0.00,,,0.00,0,Wunderground v.1.15,2013-09-07 15:42:00,
2013-09-07 08:52:00,53.5,50.3,30.10,North,0,0.0,8.0,89,0.00,,,0.00,0,Wunderground v.1.15,2013-09-07 15:52:00,
2013-09-07 09:02:00,55.1,51.6,30.10,North,0,0.0,8.0,88,0.00,,,0.00,0,Wunderground v.1.15,2013-09-07 16:02:00,
2013-09-07 09:12:00,55.9,52.1,30.10,North,0,0.0,8.0,87,0.00,,,0.00,0,Wunderground v.1.15,2013-09-07 16:12:00,
2013-09-07 09:22:00,57.3,53.1,30.10,North,0,0.0,8.0,86,0.00,,,0.00,0,Wunderground v.1.15,2013-09-07 16:22:00,
2013-09-07 09:32:00,57.7,53.2,30.09,North,0,0.0,8.0,85,0.00,,,0.00,0,Wunderground v.1.15,2013-09-07 16:32:00,
2013-09-07 09:42:00,58.1,53.6,30.09,SE,135,0.0,8.0,85,0.00,,,0.00,0,Wunderground v.1.15,2013-09-07 16:42:00,
2013-09-07 09:52:00,58.0,53.2,30.09,SE,132,0.0,8.0,84,0.00,,,0.00,0,Wunderground v.1.15,2013-09-07 16:52:00,
2013-09-07 10:02:00,58.6,54.1,30.09,North,0,0.0,8.0,85,0.00,,,0.00,0,Wunderground v.1.15,2013-09-07 17:02:00,
2013-09-07 10:12:00,60.3,54.4,30.09,SSW,204,0.0,8.0,81,0.00,,,0.00,0,Wunderground v.1.15,2013-09-07 17:12:00,
2013-09-07 10:22:00,60.1,54.2,30.09,NW,323,0.0,8.0,81,0.00,,,0.00,0,Wunderground v.1.15,2013-09-07 17:22:00,
2013-09-07 10:32:00,60.4,54.2,30.08,SSW,199,0.0,8.0,80,0.00,,,0.00,0,Wunderground v.1.15,2013-09-07 17:32:00,
2013-09-07 10:42:00,60.9,54.7,30.08,SSW,194,0.0,8.0,80,0.00,,,0.00,0,Wunderground v.1.15,2013-09-07 17:42:00,
2013-09-07 10:52:00,62.2,54.9,30.08,SSW,194,0.0,8.0,77,0.00,,,0.00,0,Wunderground v.1.15,2013-09-07 17:52:00,
2013-09-07 11:02:00,63.1,55.4,30.08,East,91,0.0,8.0,76,0.00,,,0.00,0,Wunderground v.1.15,2013-09-07 18:02:00,
2013-09-07 11:12:00,63.6,55.5,30.07,North,0,0.0,8.0,75,0.00,,,0.00,0,Wunderground v.1.15,2013-09-07 18:12:00,
2013-09-07 11:22:00,64.6,55.7,30.07,North,0,0.0,8.0,73,0.00,,,0.00,0,Wunderground v.1.15,2013-09-07 18:22:00,
2013-09-07 11:32:00,64.9,56.4,30.07,North,0,0.0,8.0,74,0.00,,,0.00,0,Wunderground v.1.15,2013-09-07 18:32:00,
2013-09-07 11:42:00,65.4,56.1,30.06,North,0,0.0,8.0,72,0.00,,,0.00,0,Wunderground v.1.15,2013-09-07 18:42:00,
2013-09-07 11:52:00,65.7,56.8,30.06,North,0,0.0,8.0,73,0.00,,,0.00,0,Wunderground v.1.15,2013-09-07 18:52:00,
2013-09-07 12:02:00,66.3,57.0,30.06,North,0,0.0,8.0,72,0.00,,,0.00,0,Wunderground v.1.15,2013-09-07 19:02:00,
2013-09-07 12:12:00,66.9,56.8,30.06,North,0,0.0,8.0,70,0.00,,,0.00,0,Wunderground v.1.15,2013-09-07 19:12:00,
2013-09-07 12:22:00,67.9,56.9,30.05,North,0,0.0,8.0,68,0.00,,,0.00,0,Wunderground v.1.15,2013-09-07 19:22:00,
2013-09-07 12:32:00,68.2,56.8,30.05,North,0,0.0,8.0,67,0.00,,,0.00,0,Wunderground v.1.15,2013-09-07 19:32:00,
2013-09-07 12:42:00,68.5,57.1,30.05,SW,216,0.0,8.0,67,0.00,,,0.00,0,Wunderground v.1.15,2013-09-07 19:42:00,
2013-09-07 12:52:00,69.4,57.5,30.04,North,0,0.0,8.0,66,0.00,,,0.00,0,Wunderground v.1.15,2013-09-07 19:52:00,
2013-09-07 13:02:00,70.2,57.9,30.04,East,88,0.0,8.0,65,0.00,,,0.00,0,Wunderground v.1.15,2013-09-07 20:02:00,
2013-09-07 13:12:00,71.0,58.2,30.04,East,101,1.0,8.0,64,0.00,,,0.00,0,Wunderground v.1.15,2013-09-07 20:12:00,
2013-09-07 13:22:00,71.2,58.4,30.03,NNE,25,3.0,8.0,64,0.00,,,0.00,0,Wunderground v.1.15,2013-09-07 20:22:00,
2013-09-07 13:32:00,71.7,57.1,30.03,North,0,0.0,8.0,60,0.00,,,0.00,0,Wunderground v.1.15,2013-09-07 20:32:00,
2013-09-07 13:42:00,72.8,57.2,30.03,North,0,0.0,8.0,58,0.00,,,0.00,0,Wunderground v.1.15,2013-09-07 20:42:00,
2013-09-07 13:52:00,74.2,58.0,30.02,NW,307,0.0,8.0,57,0.00,,,0.00,0,Wunderground v.1.15,2013-09-07 20:52:00,
2013-09-07 14:02:00,74.5,58.3,30.02,East,95,0.0,8.0,57,0.00,,,0.00,0,Wunderground v.1.15,2013-09-07 21:02:00,
2013-09-07 14:12:00,74.4,57.2,30.02,North,0,0.0,8.0,55,0.00,,,0.00,0,Wunderground v.1.15,2013-09-07 21:12:00,
2013-09-07 14:22:00,74.9,56.6,30.02,North,0,0.0,8.0,53,0.00,,,0.00,0,Wunderground v.1.15,2013-09-07 21:22:00,
2013-09-07 14:32:00,75.7,57.4,30.01,ENE,77,5.0,8.0,53,0.00,,,0.00,0,Wunderground v.1.15,2013-09-07 21:32:00,
2013-09-07 14:42:00,75.6,57.3,30.01,North,0,0.0,8.0,53,0.00,,,0.00,0,Wunderground v.1.15,2013-09-07 21:42:00,
2013-09-07 14:52:00,75.8,56.9,30.01,North,0,6.0,8.0,52,0.00,,,0.00,0,Wunderground v.1.15,2013-09-07 21:52:00,
2013-09-07 15:07:00,75.7,56.8,30.00,ENE,60,3.0,8.0,52,0.00,,,0.00,0,Wunderground v.1.15,2013-09-07 22:07:00,
2013-09-07 15:12:00,75.7,56.8,30.00,ENE,69,3.0,8.0,52,0.00,,,0.00,0,Wunderground v.1.15,2013-09-07 22:12:00,
2013-09-07 15:22:00,76.2,58.3,30.00,NE,48,8.0,8.0,54,0.00,,,0.00,0,Wunderground v.1.15,2013-09-07 22:22:00,
2013-09-07 15:32:00,75.7,58.9,30.00,East,79,8.0,12.0,56,0.00,,,0.00,0,Wunderground v.1.15,2013-09-07 22:32:00,
2013-09-07 15:42:00,75.4,58.6,30.00,ENE,67,12.0,12.0,56,0.00,,,0.00,0,Wunderground v.1.15,2013-09-07 22:42:00,
2013-09-07 15:52:00,75.4,58.6,30.00,East,85,8.0,8.0,56,0.00,,,0.00,0,Wunderground v.1.15,2013-09-07 22:52:00,
2013-09-07 16:02:00,75.1,57.8,30.00,ENE,69,3.0,8.0,55,0.00,,,0.00,0,Wunderground v.1.15,2013-09-07 23:02:00,
2013-09-07 16:12:00,74.9,58.6,30.00,ENE,76,9.0,9.0,57,0.00,,,0.00,0,Wunderground v.1.15,2013-09-07 23:12:00,
2013-09-07 16:22:00,75.0,58.7,30.00,NE,37,7.0,8.0,57,0.00,,,0.00,0,Wunderground v.1.15,2013-09-07 23:22:00,
2013-09-07 16:32:00,74.8,58.5,30.00,ENE,71,7.0,8.0,57,0.00,,,0.00,0,Wunderground v.1.15,2013-09-07 23:32:00,
2013-09-07 16:42:00,75.4,59.1,30.00,NNE,22,10.0,10.0,57,0.00,,,0.00,0,Wunderground v.1.15,2013-09-07 23:42:00,
2013-09-07 16:52:00,75.3,59.0,30.00,NNE,28,6.0,8.0,57,0.00,,,0.00,0,Wunderground v.1.15,2013-09-07 23:52:00,
2013-09-07 17:07:00,74.9,58.6,30.00,ENE,69,8.0,8.0,57,0.00,,,0.00,0,Wunderground v.1.15,2013-09-08 00:07:00,
2013-09-07 17:12:00,74.7,58.5,30.00,NNE,25,9.0,9.0,57,0.00,,,0.00,0,Wunderground v.1.15,2013-09-08 00:12:00,
2013-09-07 17:22:00,74.7,57.5,30.00,NE,39,10.0,10.0,55,0.00,,,0.00,0,Wunderground v.1.15,2013-09-08 00:22:00,
2013-09-07 17:32:00,75.0,56.7,30.01,NE,49,4.0,8.0,53,0.00,,,0.00,0,Wunderground v.1.15,2013-09-08 00:32:00,
2013-09-07 17:42:00,74.6,55.8,30.01,NE,41,5.0,8.0,52,0.00,,,0.00,0,Wunderground v.1.15,2013-09-08 00:42:00,
2013-09-07 17:52:00,74.2,55.4,30.01,East,89,9.0,9.0,52,0.00,,,0.00,0,Wunderground v.1.15,2013-09-08 00:52:00,
2013-09-07 18:02:00,74.3,56.1,30.01,NNE,17,10.0,10.0,53,0.00,,,0.00,0,Wunderground v.1.15,2013-09-08 01:02:00,
2013-09-07 18:12:00,74.3,55.5,30.01,ENE,66,5.0,8.0,52,0.00,,,0.00,0,Wunderground v.1.15,2013-09-08 01:12:00,
2013-09-07 18:22:00,74.3,56.6,30.01,NNE,32,8.0,8.0,54,0.00,,,0.00,0,Wunderground v.1.15,2013-09-08 01:22:00,
2013-09-07 18:32:00,73.9,56.7,30.01,NE,46,2.0,8.0,55,0.00,,,0.00,0,Wunderground v.1.15,2013-09-08 01:32:00,
2013-09-07 18:42:00,73.7,57.0,30.01,NE,54,6.0,8.0,56,0.00,,,0.00,0,Wunderground v.1.15,2013-09-08 01:42:00,
2013-09-07 18:52:00,72.9,56.8,30.01,NE,45,4.0,8.0,57,0.00,,,0.00,0,Wunderground v.1.15,2013-09-08 01:52:00,
2013-09-07 19:07:00,72.1,57.0,30.02,NE,41,4.0,8.0,59,0.00,,,0.00,0,Wunderground v.1.15,2013-09-08 02:07:00,
2013-09-07 19:12:00,71.9,57.3,30.02,NNE,30,2.0,8.0,60,0.00,,,0.00,0,Wunderground v.1.15,2013-09-08 02:12:00,
2013-09-07 19:22:00,70.9,57.2,30.02,East,86,4.0,8.0,62,0.00,,,0.00,0,Wunderground v.1.15,2013-09-08 02:22:00,
2013-09-07 19:32:00,70.1,56.9,30.02,ENE,61,2.0,8.0,63,0.00,,,0.00,0,Wunderground v.1.15,2013-09-08 02:32:00,
2013-09-07 19:42:00,69.7,56.5,30.03,NE,34,2.0,8.0,63,0.00,,,0.00,0,Wunderground v.1.15,2013-09-08 02:42:00,
2013-09-07 19:52:00,69.2,56.5,30.03,NE,34,0.0,8.0,64,0.00,,,0.00,0,Wunderground v.1.15,2013-09-08 02:52:00,
2013-09-07 20:02:00,68.5,56.7,30.03,NE,34,0.0,8.0,66,0.00,,,0.00,0,Wunderground v.1.15,2013-09-08 03:02:00,
2013-09-07 20:12:00,66.9,55.6,30.04,NE,34,1.0,8.0,67,0.00,,,0.00,0,Wunderground v.1.15,2013-09-08 03:12:00,
2013-09-07 20:22:00,65.5,55.8,30.04,NE,34,0.0,8.0,71,0.00,,,0.00,0,Wunderground v.1.15,2013-09-08 03:22:00,
2013-09-07 20:37:00,64.1,55.6,30.05,NE,34,0.0,8.0,74,0.00,,,0.00,0,Wunderground v.1.15,2013-09-08 03:37:00,
2013-09-07 20:42:00,63.5,55.4,30.05,NE,34,0.0,8.0,75,0.00,,,0.00,0,Wunderground v.1.15,2013-09-08 03:42:00,
2013-09-07 20:52:00,62.6,54.9,30.05,NNE,26,0.0,8.0,76,0.00,,,0.00,0,Wunderground v.1.15,2013-09-08 03:52:00,
2013-09-07 21:02:00,61.9,55.0,30.05,NNE,26,0.0,8.0,78,0.00,,,0.00,0,Wunderground v.1.15,2013-09-08 04:02:00,
2013-09-07 21:07:00,62.3,55.0,30.06,NNE,26,0.0,8.0,77,0.00,,,0.00,0,Wunderground v.1.15,2013-09-08 04:07:00,
2013-09-07 21:17:00,62.4,55.1,30.06,NNE,26,0.0,8.0,77,0.00,,,0.00,0,Wunderground v.1.15,2013-09-08 04:17:00,
2013-09-07 21:22:00,61.2,54.3,30.06,NNE,26,0.0,8.0,78,0.00,,,0.00,0,Wunderground v.1.15,2013-09-08 04:22:00,
2013-09-07 21:32:00,60.0,54.5,30.06,NW,306,2.0,8.0,82,0.00,,,0.00,0,Wunderground v.1.15,2013-09-08 04:32:00,
2013-09-07 21:37:00,59.4,54.2,30.06,NW,306,2.0,8.0,83,0.00,,,0.00,0,Wunderground v.1.15,2013-09-08 04:37:00,
2013-09-07 21:42:00,59.2,54.4,30.07,NW,308,2.0,8.0,84,0.00,,,0.00,0,Wunderground v.1.15,2013-09-08 04:42:00,
2013-09-07 21:52:00,58.7,53.9,30.07,North,0,3.0,8.0,84,0.00,,,0.00,0,Wunderground v.1.15,2013-09-08 04:52:00,
2013-09-07 21:57:00,58.4,53.9,30.07,North,349,3.0,8.0,85,0.00,,,0.00,0,Wunderground v.1.15,2013-09-08 04:57:00,
2013-09-07 22:02:00,58.1,53.6,30.07,West,268,2.0,8.0,85,0.00,,,0.00,0,Wunderground v.1.15,2013-09-08 05:02:00,
2013-09-07 22:12:00,57.5,53.3,30.07,North,0,2.0,8.0,86,0.00,,,0.00,0,Wunderground v.1.15,2013-09-08 05:12:00,
2013-09-07 22:22:00,56.9,53.1,30.07,West,262,2.0,8.0,87,0.00,,,0.00,0,Wunderground v.1.15,2013-09-08 05:22:00,
2013-09-07 22:32:00,56.1,52.9,30.07,North,0,0.0,8.0,89,0.00,,,0.00,0,Wunderground v.1.15,2013-09-08 05:32:00,
2013-09-07 22:42:00,55.5,52.3,30.07,North,349,2.0,8.0,89,0.00,,,0.00,0,Wunderground v.1.15,2013-09-08 05:42:00,
2013-09-07 22:52:00,54.9,52.0,30.07,North,0,0.0,8.0,90,0.00,,,0.00,0,Wunderground v.1.15,2013-09-08 05:52:00,
2013-09-07 23:02:00,54.9,52.3,30.07,North,0,0.0,8.0,91,0.00,,,0.00,0,Wunderground v.1.15,2013-09-08 06:02:00,
2013-09-07 23:12:00,54.9,52.3,30.07,North,0,0.0,8.0,91,0.00,,,0.00,0,Wunderground v.1.15,2013-09-08 06:12:00,
2013-09-07 23:22:00,54.1,51.5,30.07,North,0,0.0,8.0,91,0.00,,,0.00,0,Wunderground v.1.15,2013-09-08 06:22:00,
2013-09-07 23:32:00,53.2,51.2,30.07,North,0,0.0,8.0,93,0.00,,,0.00,0,Wunderground v.1.15,2013-09-08 06:32:00,
2013-09-07 23:42:00,52.7,51.0,30.07,North,0,0.0,8.0,94,0.00,,,0.00,0,Wunderground v.1.15,2013-09-08 06:42:00,
2013-09-07 23:52:00,52.2,50.8,30.07,North,0,0.0,8.0,95,0.00,,,0.00,0,Wunderground v.1.15,2013-09-08 06:52:00,